Miscellaneous Local Product
Issued by NWS Hastings, NE

Home | Current Version | Previous Version | Graphics & Text | Print | Product List | Glossary On
Versions: 1 2 3 4 5 6 7 8 9 10 11 12 13 14 15 16 17 18 19 20 21 22 23 24 25 26 27 28 29 30 31 32 33 34 35 36 37 38 39 40 41 42 43 44 45 46 47 48 49 50
000
AXUS43 KGID 250102
MISGRI

GID CWA HOURLY WEATHER ROUNDUP
NATIONAL WEATHER SERVICE HASTINGS NE
800 PM CDT THU APR 24 2014

NOTE: "FAIR" INDICATES FEW OR NO CLOUDS BELOW 12,000 FEET WITH NO
SIGNIFICANT WEATHER AND/OR OBSTRUCTIONS TO VISIBILITY.

...SOUTH CENTRAL NEBRASKA...

CITY           SKY/WX    TMP DP  RH WIND       PRES   REMARKS
GRAND ISLAND   CLEAR     65  31  28 NW3       29.79R
HASTINGS       PTCLDY    65  33  30 CALM      29.80R
KEARNEY        PTCLDY    64  30  27 W3        29.81R
ORD            CLEAR     63  22  20 NW8       29.77R
YORK           CLEAR     63  39  42 N3        29.79R
AURORA         CLEAR     65  41  41 NW3       29.78S
LEXINGTON      CLEAR     64  22  20 W7        29.81R
HOLDREGE       PTCLDY    64  24  22 W5        29.82R
HEBRON         CLEAR     61  36  40 CALM      29.80R

...NEBRASKA PANHANDLE...

CITY           SKY/WX    TMP DP  RH WIND       PRES   REMARKS
CHADRON        PTCLDY    63  26  24 CALM      29.76F
ALLIANCE       MOCLDY    57  27  31 W6        29.80F
SCOTTSBLUFF    MOCLDY    60  23  24 NW3       29.81S
SIDNEY         PTCLDY    59  25  27 N6        29.85S

...WESTERN AND NORTH CENTRAL NEBRASKA...

CITY           SKY/WX    TMP DP  RH WIND       PRES   REMARKS
VALENTINE      CLEAR     63  22  20 N9        29.78R
AINSWORTH      CLEAR     62  24  23 N8        29.78R
ONEILL         CLEAR     63  16  16 NW12      29.77R
BROKEN BOW     CLEAR     64  16  15 W3        29.79R
IMPERIAL       CLEAR     66  16  14 N5        29.84R
NORTH PLATTE   PTCLDY    59  25  27 W8        29.81S
MCCOOK         CLEAR     65  17  15 W7        29.84R

...EASTERN NEBRASKA...

CITY           SKY/WX    TMP DP  RH WIND       PRES   REMARKS
NORFOLK        CLEAR     62  31  31 N7        29.75R
SO SIOUX CITY  PTCLDY    62  42  47 E6        29.73R
TEKAMAH        MOCLDY    62  45  53 E5        29.75R
COLUMBUS       CLEAR     55  36  47 NW7       29.77S
ALBION         CLEAR     64  27  24 N5        29.77R
OMAHA EPPLEY   CLOUDY    63  41  44 CALM      29.76R
OFFUTT AFB     CLOUDY    62  46  57 CALM      29.76R
MILLARD        CLOUDY    64  40  41 CALM      29.75R
LINCOLN        PTCLDY    62  39  42 SE5       29.77S
NEBRASKA CITY  CLOUDY    61  47  59 CALM      29.78R
BEATRICE       CLEAR     64  37  36 CALM      29.78R
FALLS CITY     CLOUDY    59  49  69 SW5       29.79R

...NORTHERN KANSAS...

CITY           SKY/WX    TMP DP  RH WIND       PRES   REMARKS
GOODLAND       CLEAR     63  18  17 W5        29.88S
HILL CITY      CLEAR     66  27  23 W5        29.86R
PHILLIPSBURG   CLEAR     66  30  26 W6        29.83R
SMITH CENTER   CLEAR     66  28  24 CALM      29.82S
BELOIT         CLEAR     63  39  42 CALM      29.81S
HAYS           CLEAR     64  28  25 W3        29.86R
RUSSELL        CLEAR     64  31  28 NW3       29.84R
CONCORDIA      CLEAR     65  31  28 CALM      29.81S
SALINA         CLEAR     65  42  43 W3        29.84R
TOPEKA         PTCLDY    61  45  55 N3        29.82R



USA.gov is the U.S. government's official web portal to all federal, state and local government web resources and services.